Weather History for Lexington, NE

Change the Weather History Date:

Monday, January 13, 2014

  Actual Average Record
Temperature  
Mean Temperature 35 °F -  
Max Temperature 53 °F 37 °F 55 °F (2003)
Min Temperature 17 °F 13 °F -7 °F (1997)
Degree Days  
Heating Degree Days 30    
Moisture  
Dew Point 22 °F    
Average Humidity 60    
Maximum Humidity 91    
Minimum Humidity 28    
Precipitation  
Precipitation 0.00 in - - ()
Sea Level Pressure  
Sea Level Pressure 29.81 in    
Wind  
Wind Speed 11 mph (West)    
Max Wind Speed 24 mph    
Max Gust Speed 33 mph    
Visibility 10 miles    
Events Rain    
Averages and records for this station are not official NWS values.
T = Trace of Precipitation, MM = Missing Value Source: NWS Daily Summary

Daily Weather History Graph

Daily Weather History Graph

Search for Another Location

Airport:

Trip Planner

Search our weather history database for the weather conditions in past years. The results will help you decide how hot, cold, wet, or windy it might be!

Date:

Astronomy

Jan. 13, 2014 Rise Set
Actual Time 8:01 AM CST 5:34 PM CST
Civil Twilight 7:31 AM CST 6:04 PM CST
Nautical Twilight 6:57 AM CST 6:38 PM CST
Astronomical Twilight 6:24 AM CST 7:11 PM CST
Moon 3:50 PM CST (1/13) 5:52 AM CST (1/13)
Length of Visible Light 10h 32m
Length of Day
9h 32m
Waxing Gibbous, 95% of the Moon is Illuminated
Jan 13
Waxing Gibbous
Jan 15
Full
Jan 23
Last Quarter
Jan 30
New
Feb 6
First Quarter

Hourly Weather History & Observations

Time (CST) Temp. Windchill Dew Point Humidity Pressure Visibility Wind Dir Wind Speed Gust Speed Precip Events Conditions
12:15 AM 30.0 °F 21.7 °F 24.8 °F 81% 29.79 in 10.0 mi WNW 9.2 mph - N/A   Scattered Clouds
12:35 AM 29.1 °F 20.6 °F 24.8 °F 84% 29.80 in 10.0 mi WNW 9.2 mph - N/A   Scattered Clouds
12:55 AM 28.0 °F 19.3 °F 23.5 °F 83% 29.79 in 10.0 mi WNW 9.2 mph - N/A   Scattered Clouds
1:15 AM 29.7 °F 20.1 °F 24.8 °F 82% 29.79 in 10.0 mi WNW 11.5 mph - N/A   Clear
1:35 AM 29.8 °F 19.3 °F 25.3 °F 83% 29.80 in 10.0 mi WNW 13.8 mph - N/A   Clear
1:55 AM 31.1 °F 21.4 °F 25.9 °F 81% 29.81 in 10.0 mi WNW 12.7 mph - N/A   Clear
2:15 AM 29.7 °F 20.1 °F 25.2 °F 83% 29.82 in 10.0 mi WNW 11.5 mph - N/A   Clear
2:35 AM 28.2 °F 19.5 °F 23.9 °F 84% 29.82 in 10.0 mi WNW 9.2 mph - N/A   Clear
2:55 AM 26.8 °F 16.5 °F 23.2 °F 86% 29.83 in 10.0 mi WNW 11.5 mph - N/A   Clear
3:15 AM 25.9 °F 16.6 °F 22.6 °F 88% 29.84 in 10.0 mi WNW 9.2 mph - N/A   Clear
3:35 AM 26.6 °F 16.8 °F 23.5 °F 88% 29.85 in 10.0 mi WNW 10.4 mph - N/A   Clear
3:55 AM 28.9 °F 18.6 °F 24.1 °F 82% 29.86 in 10.0 mi WNW 12.7 mph - N/A   Clear
4:15 AM 30.0 °F 19.5 °F 24.4 °F 80% 29.86 in 10.0 mi NW 13.8 mph - N/A   Clear
4:35 AM 28.2 °F 18.9 °F 23.0 °F 81% 29.87 in 10.0 mi WNW 10.4 mph - N/A   Clear
4:55 AM 26.6 °F 16.2 °F 22.3 °F 84% 29.87 in 10.0 mi WNW 11.5 mph - N/A   Clear
5:15 AM 25.7 °F 15.7 °F 21.6 °F 84% 29.87 in 10.0 mi WNW 10.4 mph - N/A   Clear
5:35 AM 24.3 °F 15.4 °F 20.5 °F 85% 29.87 in 10.0 mi West 8.1 mph - N/A   Clear
5:55 AM 24.8 °F 16.1 °F 21.2 °F 86% 29.87 in 10.0 mi WNW 8.1 mph - N/A   Clear
6:15 AM 25.7 °F 15.7 °F 21.4 °F 84% 29.87 in 10.0 mi WNW 10.4 mph - N/A   Clear
6:35 AM 21.6 °F 12.1 °F 18.0 °F 86% 29.87 in 10.0 mi West 8.1 mph - N/A   Clear
6:55 AM 20.3 °F 10.6 °F 17.4 °F 89% 29.87 in 10.0 mi West 8.1 mph - N/A   Clear
7:15 AM 19.4 °F 9.5 °F 16.2 °F 87% 29.87 in 10.0 mi West 8.1 mph - N/A   Clear
7:35 AM 19.2 °F 9.3 °F 16.5 °F 89% 29.86 in 10.0 mi West 8.1 mph - N/A   Clear
7:55 AM 19.6 °F 11.7 °F 16.5 °F 88% 29.86 in 10.0 mi West 5.8 mph - N/A   Clear
8:15 AM 17.6 °F 10.7 °F 14.2 °F 86% 29.86 in 10.0 mi West 4.6 mph - N/A   Clear
8:35 AM 17.2 °F - 15.1 °F 91% 29.87 in 10.0 mi Calm Calm - N/A   Clear
8:55 AM 20.1 °F - 17.6 °F 90% 29.87 in 10.0 mi Calm Calm - N/A   Clear
9:15 AM 26.4 °F 22.4 °F 22.6 °F 86% 29.88 in 10.0 mi WSW 3.5 mph - N/A   Clear
9:35 AM 32.0 °F 26.4 °F 23.7 °F 71% 29.88 in 10.0 mi WSW 5.8 mph - N/A   Clear
9:55 AM 33.8 °F 28.6 °F 23.2 °F 65% 29.88 in 10.0 mi WSW 5.8 mph - N/A   Clear
10:15 AM 36.1 °F 31.4 °F 23.9 °F 61% 29.88 in 10.0 mi West 5.8 mph - N/A   Clear
10:35 AM 39.2 °F 32.5 °F 22.6 °F 52% 29.88 in 10.0 mi West 10.4 mph - N/A   Clear
10:55 AM 41.4 °F 35.2 °F 21.7 °F 46% 29.87 in 10.0 mi West 10.4 mph - N/A   Clear
11:15 AM 43.0 °F 36.0 °F 19.8 °F 40% 29.86 in 10.0 mi West 13.8 mph - N/A   Clear
11:35 AM 45.5 °F 39.2 °F 18.9 °F 35% 29.85 in 10.0 mi West 13.8 mph - N/A   Scattered Clouds
11:55 AM 44.6 °F 37.4 °F 17.8 °F 34% 29.84 in 10.0 mi West 16.1 mph 21.9 mph N/A   Overcast
12:15 PM 45.3 °F 39.0 °F 18.3 °F 34% 29.82 in 10.0 mi West 13.8 mph 23.0 mph N/A   Scattered Clouds
12:35 PM 45.9 °F 39.1 °F 18.9 °F 34% 29.80 in 10.0 mi West 16.1 mph 21.9 mph N/A   Clear
12:55 PM 46.8 °F - 19.0 °F 33% 29.79 in 10.0 mi West 19.6 mph 24.2 mph N/A   Clear
1:15 PM 48.2 °F - 19.0 °F 32% 29.78 in 10.0 mi West 19.6 mph 24.2 mph N/A   Clear
1:35 PM 48.9 °F - 18.9 °F 30% 29.77 in 10.0 mi WNW 19.6 mph 24.2 mph N/A   Clear
1:55 PM 50.0 °F - 19.8 °F 30% 29.76 in 10.0 mi West 21.9 mph 25.3 mph N/A   Clear
2:15 PM 51.8 °F - 21.4 °F 30% 29.76 in 10.0 mi WNW 21.9 mph 26.5 mph N/A   Scattered Clouds
2:35 PM 50.0 °F - 21.6 °F 33% 29.76 in 10.0 mi WNW 18.4 mph 24.2 mph N/A   Scattered Clouds
2:55 PM 52.3 °F - 21.9 °F 30% 29.75 in 10.0 mi WNW 19.6 mph 28.8 mph N/A   Clear
3:15 PM 52.0 °F - 21.9 °F 31% 29.76 in 10.0 mi WNW 19.6 mph - N/A   Clear
3:35 PM 52.3 °F - 20.3 °F 28% 29.76 in 10.0 mi West 23.0 mph 28.8 mph N/A   Clear
3:55 PM 51.1 °F - 20.3 °F 30% 29.76 in 10.0 mi WNW 19.6 mph 27.6 mph N/A   Scattered Clouds
4:15 PM 52.2 °F - 20.7 °F 29% 29.76 in 10.0 mi WNW 15.0 mph - N/A   Mostly Cloudy
4:35 PM 53.1 °F - 21.7 °F 29% 29.77 in 10.0 mi NW 24.2 mph 31.1 mph N/A   Mostly Cloudy
4:55 PM 51.8 °F - 23.0 °F 33% 29.77 in 10.0 mi NW 20.7 mph 33.4 mph N/A   Scattered Clouds
5:15 PM 49.6 °F - 23.7 °F 36% 29.77 in 10.0 mi NW 19.6 mph 26.5 mph N/A   Clear
5:35 PM 47.7 °F - 24.6 °F 41% 29.77 in 10.0 mi NW 12.7 mph - N/A   Clear
5:55 PM 46.6 °F - 25.3 °F 43% 29.77 in 10.0 mi WNW 12.7 mph - N/A   Clear
6:15 PM 45.3 °F 40.1 °F 25.5 °F 46% 29.77 in 10.0 mi WNW 10.4 mph - N/A   Clear
6:35 PM 43.5 °F 38.3 °F 25.3 °F 49% 29.77 in 10.0 mi West 9.2 mph - N/A   Clear
6:55 PM 41.7 °F 38.8 °F 24.4 °F 50% 29.76 in 10.0 mi WSW 4.6 mph - N/A   Clear
7:15 PM 38.3 °F 33.2 °F 22.6 °F 53% 29.77 in 10.0 mi WSW 6.9 mph - N/A   Clear
7:35 PM 37.2 °F 32.6 °F 22.6 °F 56% 29.77 in 10.0 mi WSW 5.8 mph - N/A   Scattered Clouds
7:55 PM 36.1 °F 32.3 °F 23.0 °F 59% 29.77 in 10.0 mi WSW 4.6 mph - N/A   Mostly Cloudy
8:15 PM 36.9 °F 34.3 °F 23.7 °F 59% 29.77 in 10.0 mi WSW 3.5 mph - N/A   Overcast
8:35 PM 39.0 °F 34.0 °F 25.2 °F 58% 29.78 in 10.0 mi West 6.9 mph - N/A   Overcast
8:55 PM 42.3 °F 36.8 °F 25.7 °F 52% 29.78 in 10.0 mi West 9.2 mph - N/A   Overcast
9:15 PM 43.2 °F 39.0 °F 25.3 °F 49% 29.78 in 10.0 mi West 6.9 mph - N/A   Overcast
9:35 PM 43.5 °F 38.9 °F 25.5 °F 49% 29.78 in 10.0 mi West 8.1 mph - N/A   Overcast
9:55 PM 48.2 °F - 27.3 °F 44% 29.78 in 10.0 mi WNW 13.8 mph - N/A   Overcast
10:15 PM 46.2 °F 42.7 °F 26.4 °F 46% 29.77 in 10.0 mi WSW 6.9 mph - N/A   Overcast
10:35 PM 45.0 °F 39.3 °F 26.6 °F 49% 29.79 in 10.0 mi West 11.5 mph - N/A   Overcast
10:55 PM 44.4 °F 40.0 °F 25.2 °F 47% 29.81 in 10.0 mi WNW 8.1 mph - N/A   Overcast
11:15 PM 42.3 °F 36.8 °F 29.7 °F 61% 29.82 in 10.0 mi NW 9.2 mph - N/A Rain Rain
11:35 PM 39.2 °F 33.0 °F 28.9 °F 67% 29.81 in 10.0 mi NW 9.2 mph - N/A   Mostly Cloudy
11:55 PM 37.6 °F 31.0 °F 28.4 °F 69% 29.83 in 10.0 mi WNW 9.2 mph - N/A   Mostly Cloudy